Tracking 20241 objects as of 25-Jan-2020
HD Live streaming from Space Station
objects crossing your sky now

HISPASAT 1A

Track HISPASAT 1A now!
HISPASAT 1A is classified as:


NORAD ID: 22116
Int'l Code: 1992-060A
Perigee: 36,019.4 km
Apogee: 36,108.7 km
Inclination: 12.6 °
Period: 1,449.9 minutes
Semi major axis: 42435 km
RCS: 7.143 m2 (large)
Launch date: September 10, 1992
Source: Spain (SPN)
Launch site: FRENCH GUIANA (FRGUI)
aabbcc
Your satellite tracking list
Your tracking list is empty




NASA's NSSDC Master Catalog

Two Line Element Set (TLE):
1 22116U 92060A   20024.42940846 -.00000213  00000-0  00000+0 0  9990
2 22116  12.5628  27.0610 0010520 285.1590  74.5836  0.99315159 96293
Source of the keplerian elements: AFSPC